Regional Weather Roundup
Issued by NWS Goodland, KS

Home | Current Version | Previous Version | Text Only | Print | Product List | Glossary On
Versions: 1 2 3 4 5 6 7 8 9 10 11 12 13 14 15 16 17 18 19 20 21 22 23 24 25 26 27 28 29 30 31 32 33 34 35 36 37 38 39 40 41 42 43 44 45 46 47 48 49 50
000
ASUS43 KGLD 061508
RWRGLD

GOODLAND FORECAST AREA HOURLY WEATHER ROUNDUP
NATIONAL WEATHER SERVICE GOODLAND KS
900 AM MDT WED MAY 06 2015

...OFFICIAL OBSERVATIONS...

CITY           SKY/WX    TMP DP  RH WIND       PRES   REMARKS
GOODLAND KS    CLOUDY    53  51  93 S9        29.69S
HILL CITY KS   CLOUDY    60  56  86 S16       29.72S
IMPERIAL NEB   CLOUDY    56  51  84 S13       29.68F
MCCOOK NEB     CLOUDY    61  56  83 SE14      29.69F
AKRON CO       LGT RAIN  52  52 100 SW14      29.66S FOG
BURLINGTON CO  CLOUDY    53  50  89 SW13      29.69F
LIMON CO       LGT RAIN  50  48  93 S3        29.73S
$$

...UNOFFICIAL OBSERVATIONS...

CITY           SKY/WX    TMP DP  RH WIND       PRES   REMARKS
COLBY KS       CLOUDY    57  55  94 SE13      29.70S
GOVE KS          N/A     58  32  37 MISG        N/A
LENORA KS        N/A     60  32  34 MISG        N/A
NORTON KS      CLOUDY    63  54  72 SE13G20   29.70
SHARON SPRINGS   N/A     52  51  97 MISG        N/A
KIT CARSON CO    N/A     51  49  93 MISG        N/A
YUMA CO          N/A     56  56 100 S17         N/A
$$


USA.gov is the U.S. government's official web portal to all federal, state and local government web resources and services.